Year,Month,Day,Hour,Minute,Value (Times are PST for temperature in C)
2015,04,20,07,46,10.10
2015,04,20,07,47,10.10
2015,04,20,07,48,10.10
2015,04,20,07,49,10.20
2015,04,20,07,50,10.20
2015,04,20,07,51,10.20
2015,04,20,07,52,10.30
2015,04,20,07,53,10.30
2015,04,20,07,54,10.40
2015,04,20,07,55,10.40
2015,04,20,07,56,10.50
2015,04,20,07,57,10.60
2015,04,20,07,58,10.60
2015,04,20,07,59,10.70
2015,04,20,08,00,10.70
2015,04,20,08,01,10.80
2015,04,20,08,02,10.80
2015,04,20,08,03,10.80
2015,04,20,08,04,10.90
2015,04,20,08,05,10.90
2015,04,20,08,06,11.00
2015,04,20,08,07,11.10
2015,04,20,08,08,11.10
2015,04,20,08,09,11.20
2015,04,20,08,10,11.20
2015,04,20,08,11,11.30
2015,04,20,08,12,11.40
2015,04,20,08,13,11.50
2015,04,20,08,14,11.60
2015,04,20,08,15,11.70
2015,04,20,08,16,11.80
2015,04,20,08,17,11.80
2015,04,20,08,18,11.80
2015,04,20,08,19,11.90
2015,04,20,08,20,12.00
2015,04,20,08,21,12.10
2015,04,20,08,22,12.30
2015,04,20,08,23,12.40
2015,04,20,08,24,12.50
2015,04,20,08,25,12.60
2015,04,20,08,26,12.70
2015,04,20,08,27,12.70
2015,04,20,08,28,12.90
2015,04,20,08,29,13.00
2015,04,20,08,30,13.10
2015,04,20,08,31,13.20
2015,04,20,08,32,13.30
2015,04,20,08,33,13.40
2015,04,20,08,34,13.50
2015,04,20,08,35,13.50
2015,04,20,08,36,13.50
2015,04,20,08,37,13.50
2015,04,20,08,38,13.50
2015,04,20,08,39,13.50
2015,04,20,08,40,13.40
2015,04,20,08,41,13.40
2015,04,20,08,42,13.40
2015,04,20,08,43,13.50
2015,04,20,08,44,13.60
2015,04,20,08,45,13.70
2015,04,20,08,46,13.70
2015,04,20,08,47,13.70
2015,04,20,08,48,13.70
2015,04,20,08,49,13.60
2015,04,20,08,50,13.70
2015,04,20,08,51,13.70
2015,04,20,08,52,13.70
2015,04,20,08,53,13.70
2015,04,20,08,54,13.70
2015,04,20,08,55,13.70
2015,04,20,08,56,13.70
2015,04,20,08,57,13.70
2015,04,20,08,58,13.80
2015,04,20,08,59,13.80
2015,04,20,09,00,13.90
2015,04,20,09,01,13.90
2015,04,20,09,02,14.00
2015,04,20,09,03,14.10
2015,04,20,09,04,14.10
2015,04,20,09,05,14.10
2015,04,20,09,06,14.20
2015,04,20,09,07,14.20
2015,04,20,09,08,14.20
2015,04,20,09,09,14.20
2015,04,20,09,10,14.20
2015,04,20,09,11,14.20
2015,04,20,09,12,14.20
2015,04,20,09,13,14.20
2015,04,20,09,14,14.20
2015,04,20,09,15,14.20
2015,04,20,09,16,14.20
2015,04,20,09,17,14.20
2015,04,20,09,18,14.20
2015,04,20,09,19,14.20
2015,04,20,09,20,14.20
2015,04,20,09,21,14.20
2015,04,20,09,22,14.20
2015,04,20,09,23,14.20
2015,04,20,09,24,14.20
2015,04,20,09,25,14.20
2015,04,20,09,26,14.20
2015,04,20,09,27,14.30
2015,04,20,09,28,14.40
2015,04,20,09,29,14.40
2015,04,20,09,30,14.50
2015,04,20,09,31,14.60
2015,04,20,09,32,14.60
2015,04,20,09,33,14.70
2015,04,20,09,34,14.70
2015,04,20,09,35,14.70
2015,04,20,09,36,14.80
2015,04,20,09,37,14.80
2015,04,20,09,38,14.90
2015,04,20,09,39,14.90
2015,04,20,09,40,14.90
2015,04,20,09,41,14.90
2015,04,20,09,42,14.90
2015,04,20,09,43,14.90
2015,04,20,09,44,14.90
2015,04,20,09,45,14.90
2015,04,20,09,46,14.80
2015,04,20,09,47,14.80
2015,04,20,09,48,14.70
2015,04,20,09,49,14.70
2015,04,20,09,50,14.70
2015,04,20,09,51,14.80
2015,04,20,09,52,14.80
2015,04,20,09,53,14.80
2015,04,20,09,54,14.80
2015,04,20,09,55,14.80
2015,04,20,09,56,14.90
2015,04,20,09,57,14.90
2015,04,20,09,58,15.00
2015,04,20,09,59,15.00
2015,04,20,10,00,15.10
2015,04,20,10,01,15.10
2015,04,20,10,02,15.20
2015,04,20,10,03,15.20
2015,04,20,10,04,15.20
2015,04,20,10,05,15.30
2015,04,20,10,06,15.30
2015,04,20,10,07,15.30
2015,04,20,10,08,15.30
2015,04,20,10,09,15.30
2015,04,20,10,10,15.20
2015,04,20,10,11,15.20
2015,04,20,10,12,15.20
2015,04,20,10,13,15.20
2015,04,20,10,14,15.20
2015,04,20,10,15,15.20
2015,04,20,10,16,15.20
2015,04,20,10,17,15.20
2015,04,20,10,18,15.20
2015,04,20,10,19,15.20
2015,04,20,10,20,15.30
2015,04,20,10,21,15.30
2015,04,20,10,22,15.40
2015,04,20,10,23,15.50
2015,04,20,10,24,15.50
2015,04,20,10,25,15.60
2015,04,20,10,26,15.60
2015,04,20,10,27,15.70
2015,04,20,10,28,15.80
2015,04,20,10,29,15.80
2015,04,20,10,30,15.90
2015,04,20,10,31,15.90
2015,04,20,10,32,15.90
2015,04,20,10,33,15.90
2015,04,20,10,34,16.00
2015,04,20,10,35,16.10
2015,04,20,10,36,16.10
2015,04,20,10,37,16.10
2015,04,20,10,38,16.10
2015,04,20,10,39,16.10
2015,04,20,10,40,16.10
2015,04,20,10,41,16.10
2015,04,20,10,42,16.10
2015,04,20,10,43,16.10
2015,04,20,10,44,16.10
2015,04,20,10,45,16.00
2015,04,20,10,46,15.90
2015,04,20,10,47,15.90
2015,04,20,10,48,15.90
2015,04,20,10,49,15.90
2015,04,20,10,50,15.90
2015,04,20,10,51,16.00
2015,04,20,10,52,16.10
2015,04,20,10,53,16.10
2015,04,20,10,54,16.10
2015,04,20,10,55,16.10
2015,04,20,10,56,16.20
2015,04,20,10,57,16.20
2015,04,20,10,58,16.20
2015,04,20,10,59,16.30
2015,04,20,11,00,16.40
2015,04,20,11,01,16.40
2015,04,20,11,02,16.50
2015,04,20,11,03,16.60
2015,04,20,11,04,16.70
2015,04,20,11,05,16.70
2015,04,20,11,06,16.80
2015,04,20,11,07,16.90
2015,04,20,11,08,16.90
2015,04,20,11,09,16.90
2015,04,20,11,10,16.80
2015,04,20,11,11,16.80
2015,04,20,11,12,16.80
2015,04,20,11,13,16.80
2015,04,20,11,14,16.80
2015,04,20,11,15,16.80
2015,04,20,11,16,16.70
2015,04,20,11,17,16.60
2015,04,20,11,18,16.40
2015,04,20,11,19,16.30
2015,04,20,11,20,16.20
2015,04,20,11,21,16.20
2015,04,20,11,22,16.20
2015,04,20,11,23,16.20
2015,04,20,11,24,16.20
2015,04,20,11,25,16.20
2015,04,20,11,26,16.20
2015,04,20,11,27,16.20
2015,04,20,11,28,16.20
2015,04,20,11,29,16.30
2015,04,20,11,30,16.30
2015,04,20,11,31,16.30
2015,04,20,11,32,16.30
2015,04,20,11,33,16.30
2015,04,20,11,34,16.30
2015,04,20,11,35,16.30
2015,04,20,11,36,16.20
2015,04,20,11,37,16.20
2015,04,20,11,38,16.10
2015,04,20,11,39,16.10
2015,04,20,11,40,16.10
2015,04,20,11,41,16.10
2015,04,20,11,42,16.10
2015,04,20,11,43,16.10
2015,04,20,11,44,16.10
2015,04,20,11,45,16.10
2015,04,20,11,46,16.20
2015,04,20,11,47,16.30
2015,04,20,11,48,16.30
2015,04,20,11,49,16.30
2015,04,20,11,50,16.30
2015,04,20,11,51,16.20
2015,04,20,11,52,16.20
2015,04,20,11,53,16.10
2015,04,20,11,54,16.10
2015,04,20,11,55,16.00
2015,04,20,11,56,15.90
2015,04,20,11,57,15.80
2015,04,20,11,58,15.90
2015,04,20,11,59,15.90
2015,04,20,12,00,15.90
2015,04,20,12,01,15.90
2015,04,20,12,02,15.90
2015,04,20,12,03,15.90
2015,04,20,12,04,15.90
2015,04,20,12,05,15.80
2015,04,20,12,06,15.80
2015,04,20,12,07,15.80
2015,04,20,12,08,15.80
2015,04,20,12,09,15.80
2015,04,20,12,10,15.90
2015,04,20,12,11,15.90
2015,04,20,12,12,16.00
2015,04,20,12,13,16.10
2015,04,20,12,14,16.10
2015,04,20,12,15,16.20
2015,04,20,12,16,16.30
2015,04,20,12,17,16.40
2015,04,20,12,18,16.40
2015,04,20,12,19,16.40
2015,04,20,12,20,16.40
2015,04,20,12,21,16.40
2015,04,20,12,22,16.50
2015,04,20,12,23,16.40
2015,04,20,12,24,16.40
2015,04,20,12,25,16.40
2015,04,20,12,26,16.40
2015,04,20,12,27,16.40
2015,04,20,12,28,16.40
2015,04,20,12,29,16.60
2015,04,20,12,30,16.70
2015,04,20,12,31,16.70
2015,04,20,12,32,16.70
2015,04,20,12,33,16.70
2015,04,20,12,34,16.80
2015,04,20,12,35,16.80
2015,04,20,12,36,16.90
2015,04,20,12,37,16.90
2015,04,20,12,38,16.90
2015,04,20,12,39,17.00
2015,04,20,12,40,17.10
2015,04,20,12,41,17.10
2015,04,20,12,42,17.00
2015,04,20,12,43,17.00
2015,04,20,12,44,17.10
2015,04,20,12,45,17.10
2015,04,20,12,46,17.30
2015,04,20,12,47,17.30
2015,04,20,12,48,17.30
2015,04,20,12,49,17.30
2015,04,20,12,50,17.30
2015,04,20,12,51,17.40
2015,04,20,12,52,17.40
2015,04,20,12,53,17.50
2015,04,20,12,54,17.50
2015,04,20,12,55,17.60
2015,04,20,12,56,17.50
2015,04,20,12,57,17.60
2015,04,20,12,58,17.60
2015,04,20,12,59,17.60
2015,04,20,13,00,17.60
2015,04,20,13,01,17.60
2015,04,20,13,02,17.70
2015,04,20,13,03,17.70
2015,04,20,13,04,17.70
2015,04,20,13,05,17.70
2015,04,20,13,06,17.60
2015,04,20,13,07,17.60
2015,04,20,13,08,17.50
2015,04,20,13,09,17.40
2015,04,20,13,10,17.40
2015,04,20,13,11,17.40
2015,04,20,13,12,17.30
2015,04,20,13,13,17.30
2015,04,20,13,14,17.30
2015,04,20,13,15,17.20
2015,04,20,13,16,17.20
2015,04,20,13,17,17.10
2015,04,20,13,18,17.00
2015,04,20,13,19,17.00
2015,04,20,13,20,17.00
2015,04,20,13,21,16.90
2015,04,20,13,22,16.90
2015,04,20,13,23,16.90
2015,04,20,13,24,16.90
2015,04,20,13,25,16.90
2015,04,20,13,26,16.80
2015,04,20,13,27,16.80
2015,04,20,13,28,16.80
2015,04,20,13,29,16.80
2015,04,20,13,30,16.80
2015,04,20,13,31,16.70
2015,04,20,13,32,16.70
2015,04,20,13,33,16.70
2015,04,20,13,34,16.80
2015,04,20,13,35,16.90
2015,04,20,13,36,17.00
2015,04,20,13,37,17.00
2015,04,20,13,38,17.10
2015,04,20,13,39,17.10
2015,04,20,13,40,17.10
2015,04,20,13,41,17.10
2015,04,20,13,42,17.10
2015,04,20,13,43,17.10
2015,04,20,13,44,17.20
2015,04,20,13,45,17.20
2015,04,20,13,46,17.30
2015,04,20,13,47,17.30
2015,04,20,13,48,17.30
2015,04,20,13,49,17.30
2015,04,20,13,50,17.30
2015,04,20,13,51,17.30
2015,04,20,13,52,17.30
2015,04,20,13,53,17.30
2015,04,20,13,54,17.40
2015,04,20,13,55,17.50
2015,04,20,13,56,17.50
2015,04,20,13,57,17.60
2015,04,20,13,58,17.60
2015,04,20,13,59,17.50
2015,04,20,14,00,17.40
2015,04,20,14,01,17.30
2015,04,20,14,02,17.30
2015,04,20,14,03,17.30
2015,04,20,14,04,17.30
2015,04,20,14,05,17.30
2015,04,20,14,06,17.30
2015,04,20,14,07,17.30
2015,04,20,14,08,17.30
2015,04,20,14,09,17.30
2015,04,20,14,10,17.40
2015,04,20,14,11,17.50
2015,04,20,14,12,17.70
2015,04,20,14,13,17.70
2015,04,20,14,14,17.80
2015,04,20,14,15,17.80
2015,04,20,14,16,17.90
2015,04,20,14,17,17.90
2015,04,20,14,18,17.90
2015,04,20,14,19,18.00
2015,04,20,14,20,18.10
2015,04,20,14,21,18.20
2015,04,20,14,22,18.20
2015,04,20,14,23,18.20
2015,04,20,14,24,18.20
2015,04,20,14,25,18.20
2015,04,20,14,26,18.20
2015,04,20,14,27,18.20
2015,04,20,14,28,18.20
2015,04,20,14,29,18.20
2015,04,20,14,30,18.30
2015,04,20,14,31,18.30
2015,04,20,14,32,18.40
2015,04,20,14,33,18.50
2015,04,20,14,34,18.50
2015,04,20,14,35,18.40
2015,04,20,14,36,18.40
2015,04,20,14,37,18.30
2015,04,20,14,38,18.20
2015,04,20,14,39,18.20
2015,04,20,14,40,18.20
2015,04,20,14,41,18.20
2015,04,20,14,42,18.30
2015,04,20,14,43,18.30
2015,04,20,14,44,18.30
2015,04,20,14,45,18.30
2015,04,20,14,46,18.30
2015,04,20,14,47,18.20
2015,04,20,14,48,18.20
2015,04,20,14,49,18.10
2015,04,20,14,50,18.10
2015,04,20,14,51,18.10
2015,04,20,14,52,18.00
2015,04,20,14,53,17.90
2015,04,20,14,54,17.90
2015,04,20,14,55,18.00
2015,04,20,14,56,18.10
2015,04,20,14,57,18.10
2015,04,20,14,58,18.10
2015,04,20,14,59,18.10
2015,04,20,15,00,18.20
2015,04,20,15,01,18.20
2015,04,20,15,02,18.20
2015,04,20,15,03,18.00
2015,04,20,15,04,17.90
2015,04,20,15,05,17.90
2015,04,20,15,06,17.70
2015,04,20,15,07,17.60
2015,04,20,15,08,17.50
2015,04,20,15,09,17.40
2015,04,20,15,10,17.40
2015,04,20,15,11,17.50
2015,04,20,15,12,17.50
2015,04,20,15,13,17.60
2015,04,20,15,14,17.70
2015,04,20,15,15,17.80
2015,04,20,15,16,17.90
2015,04,20,15,17,18.00
2015,04,20,15,18,18.10
2015,04,20,15,19,18.20
2015,04,20,15,20,18.20
2015,04,20,15,21,18.20
2015,04,20,15,22,18.30
2015,04,20,15,23,18.40
2015,04,20,15,24,18.50
2015,04,20,15,25,18.50
2015,04,20,15,26,18.50
2015,04,20,15,27,18.60
2015,04,20,15,28,18.70
2015,04,20,15,29,18.70
2015,04,20,15,30,18.70
2015,04,20,15,31,18.70
2015,04,20,15,32,18.70
2015,04,20,15,33,18.70
2015,04,20,15,34,18.70
2015,04,20,15,35,18.80
2015,04,20,15,36,18.80
2015,04,20,15,37,18.80
2015,04,20,15,38,18.80
2015,04,20,15,39,18.80
2015,04,20,15,40,18.80
2015,04,20,15,41,18.80
2015,04,20,15,42,18.70
2015,04,20,15,43,18.70
2015,04,20,15,44,18.70
2015,04,20,15,45,18.70
2015,04,20,15,46,18.70
2015,04,20,15,47,18.70
2015,04,20,15,48,18.70
2015,04,20,15,49,18.70
2015,04,20,15,50,18.70
2015,04,20,15,51,18.70
2015,04,20,15,52,18.80
2015,04,20,15,53,18.80
2015,04,20,15,54,18.80
2015,04,20,15,55,18.80
2015,04,20,15,56,18.80
2015,04,20,15,57,18.90
2015,04,20,15,58,18.90
2015,04,20,15,59,18.90
2015,04,20,16,00,18.90
2015,04,20,16,01,18.90
2015,04,20,16,02,18.90
2015,04,20,16,03,18.90
2015,04,20,16,04,19.00
2015,04,20,16,05,19.10
2015,04,20,16,06,19.10
2015,04,20,16,07,19.10
2015,04,20,16,08,19.10
2015,04,20,16,09,19.10
2015,04,20,16,10,19.10
2015,04,20,16,11,19.10
2015,04,20,16,12,19.10
2015,04,20,16,13,19.10
2015,04,20,16,14,19.00
2015,04,20,16,15,18.90
2015,04,20,16,16,18.90
2015,04,20,16,17,18.90
2015,04,20,16,18,18.90
2015,04,20,16,19,18.90
2015,04,20,16,20,18.90
2015,04,20,16,21,19.00
2015,04,20,16,22,19.10
2015,04,20,16,23,19.10
2015,04,20,16,24,19.20
2015,04,20,16,25,19.30
2015,04,20,16,26,19.30
2015,04,20,16,27,19.30
2015,04,20,16,28,19.20
2015,04,20,16,29,19.20
2015,04,20,16,30,19.20
2015,04,20,16,31,19.20
2015,04,20,16,32,19.20
2015,04,20,16,33,19.30
2015,04,20,16,34,19.30
2015,04,20,16,35,19.40
2015,04,20,16,36,19.30
2015,04,20,16,37,19.30
2015,04,20,16,38,19.30
2015,04,20,16,39,19.30
2015,04,20,16,40,19.30
2015,04,20,16,41,19.30
2015,04,20,16,42,19.20
2015,04,20,16,43,19.20
2015,04,20,16,44,19.10
2015,04,20,16,45,19.10
2015,04,20,16,46,19.10
2015,04,20,16,47,19.10
2015,04,20,16,48,19.10
2015,04,20,16,49,19.00
2015,04,20,16,50,18.90
2015,04,20,16,51,18.90
2015,04,20,16,52,19.00
2015,04,20,16,53,19.10
2015,04,20,16,54,19.10
2015,04,20,16,55,19.10
2015,04,20,16,56,19.10
2015,04,20,16,57,19.10
2015,04,20,16,58,19.00
2015,04,20,16,59,18.90
2015,04,20,17,00,18.90
2015,04,20,17,01,18.80
2015,04,20,17,02,18.70
2015,04,20,17,03,18.60
2015,04,20,17,04,18.40
2015,04,20,17,05,18.20
2015,04,20,17,06,18.00
2015,04,20,17,07,17.90
2015,04,20,17,08,17.80
2015,04,20,17,09,17.80
2015,04,20,17,10,17.70
2015,04,20,17,11,17.70
2015,04,20,17,12,17.70
2015,04,20,17,13,17.70
2015,04,20,17,14,17.70
2015,04,20,17,15,17.70
2015,04,20,17,16,17.70
2015,04,20,17,17,17.60
2015,04,20,17,18,17.50
2015,04,20,17,19,17.40
2015,04,20,17,20,17.20
2015,04,20,17,21,17.00
2015,04,20,17,22,16.90
2015,04,20,17,23,16.90
2015,04,20,17,24,16.80
2015,04,20,17,25,16.80
2015,04,20,17,26,16.80
2015,04,20,17,27,16.90
2015,04,20,17,28,16.90
2015,04,20,17,29,16.90
2015,04,20,17,30,16.80
2015,04,20,17,31,16.70
2015,04,20,17,32,16.70
2015,04,20,17,33,16.70
2015,04,20,17,34,16.70
2015,04,20,17,35,16.60
2015,04,20,17,36,16.50
2015,04,20,17,37,16.40
2015,04,20,17,38,16.40
2015,04,20,17,39,16.40
2015,04,20,17,40,16.50
2015,04,20,17,41,16.60
2015,04,20,17,42,16.60
2015,04,20,17,43,16.70
2015,04,20,17,44,16.80
2015,04,20,17,45,16.80
2015,04,20,17,46,16.90
2015,04,20,17,47,17.00
2015,04,20,17,48,17.00
2015,04,20,17,49,17.00
2015,04,20,17,50,17.10
2015,04,20,17,51,17.20
2015,04,20,17,52,17.30
2015,04,20,17,53,17.50
2015,04,20,17,54,17.60
2015,04,20,17,55,17.70
2015,04,20,17,56,17.80
2015,04,20,17,57,17.90
2015,04,20,17,58,17.90
2015,04,20,17,59,18.10
2015,04,20,18,00,18.20
2015,04,20,18,01,18.20
2015,04,20,18,02,18.20
2015,04,20,18,03,18.20
2015,04,20,18,04,18.30
2015,04,20,18,05,18.30
2015,04,20,18,06,18.40
2015,04,20,18,07,18.40
2015,04,20,18,08,18.40
2015,04,20,18,09,18.40
2015,04,20,18,10,18.40
2015,04,20,18,11,18.50
2015,04,20,18,12,18.50
2015,04,20,18,13,18.50
2015,04,20,18,14,18.50
2015,04,20,18,15,18.50
2015,04,20,18,16,18.60
2015,04,20,18,17,18.60
2015,04,20,18,18,18.60
2015,04,20,18,19,18.60
2015,04,20,18,20,18.50
2015,04,20,18,21,18.40
2015,04,20,18,22,18.40
2015,04,20,18,23,18.30
2015,04,20,18,24,18.20
2015,04,20,18,25,18.10
2015,04,20,18,26,18.10
2015,04,20,18,27,18.00
2015,04,20,18,28,17.90
2015,04,20,18,29,17.90
2015,04,20,18,30,17.90
2015,04,20,18,31,17.80
2015,04,20,18,32,17.70
2015,04,20,18,33,17.70
2015,04,20,18,34,17.60
2015,04,20,18,35,17.50
2015,04,20,18,36,17.40
2015,04,20,18,37,17.30
2015,04,20,18,38,17.30
2015,04,20,18,39,17.20
2015,04,20,18,40,17.10
2015,04,20,18,41,17.00
2015,04,20,18,42,16.90
2015,04,20,18,43,16.90
2015,04,20,18,44,16.80
2015,04,20,18,45,16.70
2015,04,20,18,46,16.70
2015,04,20,18,47,16.70
2015,04,20,18,48,16.70
2015,04,20,18,49,16.70
2015,04,20,18,50,16.70
2015,04,20,18,51,16.60
2015,04,20,18,52,16.60
2015,04,20,18,53,16.60
2015,04,20,18,54,16.40
2015,04,20,18,55,16.40
2015,04,20,18,56,16.40
2015,04,20,18,57,16.30
2015,04,20,18,58,16.20
2015,04,20,18,59,16.20
2015,04,20,19,00,16.10
2015,04,20,19,01,16.10
2015,04,20,19,02,16.10
2015,04,20,19,03,16.00
2015,04,20,19,04,15.90
2015,04,20,19,05,15.80
2015,04,20,19,06,15.80
2015,04,20,19,07,15.80
2015,04,20,19,08,15.70
2015,04,20,19,09,15.70
2015,04,20,19,10,15.70
2015,04,20,19,11,15.60
2015,04,20,19,12,15.60
2015,04,20,19,13,15.50
2015,04,20,19,14,15.50
2015,04,20,19,15,15.40
2015,04,20,19,16,15.30
2015,04,20,19,17,15.30
2015,04,20,19,18,15.30
2015,04,20,19,19,15.30
2015,04,20,19,20,15.20
2015,04,20,19,21,15.20
2015,04,20,19,22,15.10
2015,04,20,19,23,15.10
2015,04,20,19,24,15.00
2015,04,20,19,25,14.90
2015,04,20,19,26,14.90
2015,04,20,19,27,14.80
2015,04,20,19,28,14.80
2015,04,20,19,29,14.80
2015,04,20,19,30,14.80
2015,04,20,19,31,14.70
2015,04,20,19,32,14.70
2015,04,20,19,33,14.60
2015,04,20,19,34,14.60
2015,04,20,19,35,14.60
2015,04,20,19,36,14.50
2015,04,20,19,37,14.50
2015,04,20,19,38,14.50
2015,04,20,19,39,14.40
2015,04,20,19,40,14.40
2015,04,20,19,41,14.40
2015,04,20,19,42,14.30
2015,04,20,19,43,14.20
2015,04,20,19,44,14.20
2015,04,20,19,45,14.20
2015,04,20,19,46,14.20
2015,04,20,19,47,14.00
2015,04,20,19,48,14.00
2015,04,20,19,49,13.90
2015,04,20,19,50,13.80
2015,04,20,19,51,13.80
2015,04,20,19,52,13.70
2015,04,20,19,53,13.70
2015,04,20,19,54,13.70
2015,04,20,19,55,13.70
2015,04,20,19,56,13.70
2015,04,20,19,57,13.70
2015,04,20,19,58,13.70
2015,04,20,19,59,13.70
2015,04,20,20,00,13.80
2015,04,20,20,01,13.80
2015,04,20,20,02,13.90
2015,04,20,20,03,13.90
2015,04,20,20,04,13.90
2015,04,20,20,05,13.90
2015,04,20,20,06,13.90
2015,04,20,20,07,13.90
2015,04,20,20,08,13.90
2015,04,20,20,09,13.90
2015,04,20,20,10,13.90
2015,04,20,20,11,13.90
2015,04,20,20,12,13.90
